VESTMANNAEYJAR_(LH) current weather conditions

sailwx.info

Wind from 130 at 6 knots

Air temperature 4.0° C
Visibility: greater than 5.4 NM
Dewpoint -0.0° C

Last reported at 2020-Feb-18 13:00 UTC.
Time now 2020-Feb-18 13:54 UTC

Location: N 63°24' W 020°17'.
View on Google Maps.

See reports from other nearby stations

  
Tides and Currents Weather Stations Pressure Air Temp Water Temp Dewpoint Dewpoint Depression Visibility Wind Speed Wind Dir Waves Ship Positions
date/time (UTC)wind fromknots sea level pressurealtimeterstation pressurevisibilityair tempwater tempwave heightnotes
2020-Feb-18 13:00 130 6 5.4 4.0
2020-Feb-18 12:00 130 6 5.4 4.0
2020-Feb-18 11:00 170 5 5.4 4.0
2020-Feb-18 10:00 100 9 5.4 4.0
2020-Feb-18 09:00 100 9 5.4 3.0
2020-Feb-18 08:00 060 7 5.4 3.0
2020-Feb-18 06:35 080 5 5.4 3.0
2020-Feb-17 17:00 200 7 5.4 3.0
2020-Feb-17 15:00 360 2 5.4 4.0
2020-Feb-17 14:00 030 5 5.4 4.0
2020-Feb-17 13:00 030 2 5.4 4.0
2020-Feb-17 12:00 090 9 5.4 4.0
2020-Feb-17 11:00 080 9 5.4 3.0
2020-Feb-17 10:00 060 9 5.4 2.0
2020-Feb-17 09:00 010 12 5.4 1.0
2020-Feb-17 08:00 310 14 gusting 25 5.4 3.0
2020-Feb-17 07:00 310 21 gusting 35 5.4 2.0
2020-Feb-17 06:36 310 21 gusting 34 5.4 2.0
2020-Feb-17 02:00 360 13 gusting 24 5.4 2.0
2020-Feb-16 18:00 020 13 5.4 2.0
2020-Feb-16 17:00 350 13 5.4 2.0
2020-Feb-16 16:00 350 13 5.4 2.0
2020-Feb-16 15:00 360 12 5.4 4.0
2020-Feb-16 13:00 010 12 5.4 3.0